(216746) = 2005 NR3

Discovered at Kitt Peak on 2005-07-01 by Spacewatch.

Orbit

Orbit type: Main Belt

Note: WebGL enabled browser required.

epoch2024-03-31.0
epoch JD2460400.5
perihelion date2022-07-15.08430
perihelion JD2459775.58430
argument of perihelion (°)222.21574
ascending node (°)130.66401
inclination (°)12.25282
eccentricity0.0017381
perihelion distance (AU)2.5658434
Tisserand w.r.t. Jupiter3.4
ΔV w.r.t. Earth (km/sec)10.7
semimajor axis (AU)2.5703108
mean anomaly (°)149.46752
mean daily motion (°/day)0.23918030
aphelion distance (AU)2.575
period (years)4.12
P-vector [x]0.98067793
P-vector [y]-0.06615179
P-vector [z]-0.18410526
Q-vector [x]0.11115496
Q-vector [y]0.96284244
Q-vector [z]0.24612804
absolute magnitude16.31
phase slope0.15
uncertainty0
referenceMPEC 2024-C128
observations used445
oppositions16
arc length (days)8211
first opposition used2001
last opposition used2024
residual rms (arc-secs)0.78
perturbers coarse indicatorM-v
perturbers precise indicator003Ek
first observation date used2001-08-19.0
last observation date used2024-02-11.0
computer nameMPCLINUX
JD of orbit computation2456966.902861
perihelion JD uncertainty (days)1.5649E-02
argument of perihelion uncertainty (°)3.7462E-03
ascending node uncertainty (°)3.1124E-05
inclination uncertainty (°)7.0414E-06
eccentricity uncertainty 6.4926E-08
perihelion distance uncertainty (AU)1.5827E-07
Minimum Orbit Intersection Distances (in AU)
for orbit epoch: 2460400.5, reference: E2024-GB3
Mercury2.11857
Venus1.83825
Earth1.55233
Mars0.91265
Jupiter2.43906
Saturn6.49477
Uranus15.8795
Neptune27.3019

Observations

457 total observations over interval: 2001 08 19.28574 – 2024 02 11.518170
These data are available for download (format description).

Date (UT) J2000 RA J2000 Dec Magn Location Ref
2001 08 19.28574 22 07 46.71 -17 40 23.7 19.2   704 – Lincoln Laboratory ETS, New Mexico MPS 138493
2001 08 19.29843 22 07 46.06 -17 40 31.4 19.2   704 – Lincoln Laboratory ETS, New Mexico MPS 138493
2001 08 19.31124 22 07 45.45 -17 40 39.3 19.7   704 – Lincoln Laboratory ETS, New Mexico MPS 138493
2004 03 21.48492 13 44 01.91 +07 46 23.0 20.3 V 691 – Steward Observatory, Kitt Peak-Spacewatch MPS 138493
2004 03 21.50005 13 44 01.35 +07 46 31.3 20.2 V 691 – Steward Observatory, Kitt Peak-Spacewatch MPS 138493
2004 03 21.51767 13 44 00.69 +07 46 41.0 20.3 V 691 – Steward Observatory, Kitt Peak-Spacewatch MPS 138493
2004 03 29.40040 13 38 45.04 +08 56 30.1 20.1 V 691 – Steward Observatory, Kitt Peak-Spacewatch MPS 138493
2004 03 29.43255 13 38 43.57 +08 56 46.2 20.1 V 691 – Steward Observatory, Kitt Peak-Spacewatch MPS 138493
2004 03 29.47376 13 38 41.69 +08 57 07.3 20.1 V 691 – Steward Observatory, Kitt Peak-Spacewatch MPS 138493
2005 06 18.36556 21 28 22.33 -12 06 18.2 20.4 V G96 – Mt. Lemmon Survey MPS 138493
2005 06 18.37091 21 28 22.33 -12 06 19.5 20.3 V G96 – Mt. Lemmon Survey MPS 138493
2005 06 18.37627 21 28 22.33 -12 06 20.3 20.2 V G96 – Mt. Lemmon Survey MPS 138493
2005 06 18.38160 21 28 22.36 -12 06 21.2 20.4 V G96 – Mt. Lemmon Survey MPS 138493
2005 07 01.42785 21 26 58.08 -13 03 24.3 20.5 V 691 – Steward Observatory, Kitt Peak-Spacewatch MPS 137520
2005 07 01.44281 21 26 57.80 -13 03 29.7 20.5 V 691 – Steward Observatory, Kitt Peak-Spacewatch MPS 137520
2005 07 01.45772 21 26 57.53 -13 03 34.5 20.6 V 691 – Steward Observatory, Kitt Peak-Spacewatch MPS 137520
2005 07 05.38479 21 25 41.08 -13 26 40.5 20.0 V G96 – Mt. Lemmon Survey MPS 137520
2005 07 05.39284 21 25 40.90 -13 26 43.7 19.7 V G96 – Mt. Lemmon Survey MPS 137520
2005 07 05.40088 21 25 40.69 -13 26 46.5 20.0 V G96 – Mt. Lemmon Survey MPS 137520
2005 07 05.40890 21 25 40.51 -13 26 49.4 19.7 V G96 – Mt. Lemmon Survey MPS 137520
2005 07 05.44368 21 25 39.71 -13 27 02.6 19.5   644 – Palomar Mountain/NEAT MPS 137520
2005 07 05.45466 21 25 39.45 -13 27 06.2 20.0   644 – Palomar Mountain/NEAT MPS 137520
2005 07 05.46604 21 25 39.14 -13 27 11.3 19.4   644 – Palomar Mountain/NEAT MPS 137520
2005 07 11.39820 21 23 00.06 -14 06 58.1 20.1 V 691 – Steward Observatory, Kitt Peak-Spacewatch MPS 138007
2005 07 11.41901 21 22 59.38 -14 07 07.0 20.1 V 691 – Steward Observatory, Kitt Peak-Spacewatch MPS 138007
2005 07 11.43979 21 22 58.71 -14 07 16.2 19.9 V 691 – Steward Observatory, Kitt Peak-Spacewatch MPS 138007
2005 07 15.42774 21 20 44.59 -14 36 58.8 19.8 V G96 – Mt. Lemmon Survey MPS 138007
2005 07 15.43306 21 20 44.41 -14 37 01.2 19.8 V G96 – Mt. Lemmon Survey MPS 138007
2005 07 15.43835 21 20 44.23 -14 37 03.7 19.5 V G96 – Mt. Lemmon Survey MPS 138007
2005 07 15.44361 21 20 44.05 -14 37 06.3 19.4 V G96 – Mt. Lemmon Survey MPS 138007
2005 07 18.38519 21 18 52.68 -15 00 19.5 19.8   644 – Palomar Mountain/NEAT MPS 138493
2005 07 18.40638 21 18 51.80 -15 00 29.6 19.6   644 – Palomar Mountain/NEAT MPS 138493
2005 07 18.43286 21 18 50.67 -15 00 42.5 19.5   644 – Palomar Mountain/NEAT MPS 138493
2005 07 27.23124 21 12 24.53 -16 15 12.2 19.9   644 – Palomar Mountain/NEAT MPS 138661
2005 07 27.27220 21 12 22.51 -16 15 34.0 19.8   644 – Palomar Mountain/NEAT MPS 138661
2005 07 27.30612 21 12 20.83 -16 15 52.2 19.9   644 – Palomar Mountain/NEAT MPS 138661
2005 07 31.56022 21 08 52.33 -16 53 31.5 19.0 V E12 – Siding Spring Survey MPS 138909
2005 07 31.57056 21 08 51.75 -16 53 35.1 20.5 V E12 – Siding Spring Survey MPS 138909
2005 07 31.58089 21 08 51.25 -16 53 41.6 19.6 V E12 – Siding Spring Survey MPS 138909
2005 07 31.59101 21 08 50.64 -16 53 48.3 19.8 V E12 – Siding Spring Survey MPS 138909
2006 11 19.37755 04 56 49.95 +04 58 45.0 20.1 V 703 – Catalina Sky Survey MPS 188712
2006 11 19.38356 04 56 49.59 +04 58 45.2 20.9 V 703 – Catalina Sky Survey MPS 188712
2006 11 19.38955 04 56 49.23 +04 58 44.2 19.8 V 703 – Catalina Sky Survey MPS 188712
2006 11 19.39554 04 56 48.87 +04 58 42.9 20.6 V 703 – Catalina Sky Survey MPS 188712
2008 01 19.45227 12 48 28.11 +04 52 07.7 20.7 V G96 – Mt. Lemmon Survey MPS 235054
2008 01 19.45793 12 48 28.29 +04 52 08.8 20.0 V G96 – Mt. Lemmon Survey MPS 235054
2008 01 19.46380 12 48 28.51 +04 52 09.6 20.3 V G96 – Mt. Lemmon Survey MPS 235054
2008 01 19.46960 12 48 28.76 +04 52 11.1 21.1 V G96 – Mt. Lemmon Survey MPS 235054
2008 03 02.69696 12 51 14.69 +09 54 02.4 19.4 R D29 – Purple Mountain Observatory, XuYi Station MPS 240737
2008 03 08.33294 12 48 09.80 +10 49 58.6 19.7   704 – Lincoln Laboratory ETS, New Mexico MPS 242117
2008 03 08.34428 12 48 09.31 +10 50 05.6 20.0   704 – Lincoln Laboratory ETS, New Mexico MPS 242117
2008 03 08.35555 12 48 08.84 +10 50 12.8 19.7   704 – Lincoln Laboratory ETS, New Mexico MPS 242117
2008 03 08.36688 12 48 08.39 +10 50 19.6 19.7   704 – Lincoln Laboratory ETS, New Mexico MPS 242117
2008 03 08.37826 12 48 07.97 +10 50 26.2 20.2   704 – Lincoln Laboratory ETS, New Mexico MPS 242117
2008 03 13.32607 12 44 54.56 +11 39 21.4 20.2 V 703 – Catalina Sky Survey MPS 243556
2008 03 13.33472 12 44 54.24 +11 39 24.1 20.2 V 703 – Catalina Sky Survey MPS 243556
2008 03 13.34337 12 44 53.88 +11 39 30.5 19.8 V 703 – Catalina Sky Survey MPS 243556
2008 03 13.35202 12 44 53.52 +11 39 35.2 20.1 V 703 – Catalina Sky Survey MPS 243556
2008 03 29.26101 12 32 32.28 +14 01 00.5 19.7 V 703 – Catalina Sky Survey MPS 284359
2008 03 29.26800 12 32 31.88 +14 01 04.4 20.4 V 703 – Catalina Sky Survey MPS 284359
2008 03 29.27505 12 32 31.63 +14 01 07.4 20.3 V 703 – Catalina Sky Survey MPS 284359
2008 03 29.28206 12 32 31.27 +14 01 10.1 20.2 V 703 – Catalina Sky Survey MPS 284359
2009 04 21.47678 20 06 57.70 -12 45 08.7 21.6 V G96 – Mt. Lemmon Survey MPS 284359
2009 04 21.48104 20 06 57.96 -12 45 07.7 21.1 V G96 – Mt. Lemmon Survey MPS 284359
2009 04 21.48538 20 06 58.21 -12 45 07.3 20.9 V G96 – Mt. Lemmon Survey MPS 284359
2009 04 21.48981 20 06 58.46 -12 45 06.4 20.2 V G96 – Mt. Lemmon Survey MPS 284359
2009 06 15.43785 20 28 15.31 -12 35 11.8 20.5 V 691 – Steward Observatory, Kitt Peak-Spacewatch MPS 288650
2009 06 15.45556 20 28 15.00 -12 35 15.6 20.3 V 691 – Steward Observatory, Kitt Peak-Spacewatch MPS 288650
2009 06 15.47321 20 28 14.69 -12 35 19.2 20.5 V 691 – Steward Observatory, Kitt Peak-Spacewatch MPS 288650
2009 07 24.56664 20 01 36.91 -16 35 15.0 19.3 V E12 – Siding Spring Survey MPS 291445
2009 07 24.57583 20 01 36.48 -16 35 19.5 20.2 V E12 – Siding Spring Survey MPS 291445
2009 07 24.58513 20 01 35.90 -16 35 23.1 19.9 V E12 – Siding Spring Survey MPS 291445
2009 07 24.59432 20 01 35.43 -16 35 27.5 19.7 V E12 – Siding Spring Survey MPS 291445
2010 11 12.32455 03 57 11.26 +00 50 06.1 19.7 V 703 – Catalina Sky Survey MPS 358629
2010 11 12.33257 03 57 10.80 +00 50 03.8 20.4 V 703 – Catalina Sky Survey MPS 358629
2010 11 12.34061 03 57 10.33 +00 50 01.2 19.5 V 703 – Catalina Sky Survey MPS 358629
2010 11 12.34867 03 57 09.86 +00 49 59.2 19.6 V 703 – Catalina Sky Survey MPS 358629
2010 11 18.340691 03 51 35.983 +00 35 46.01 20.09 i F51 – Pan-STARRS 1, Haleakala MPS 365269
2010 11 18.351366 03 51 35.356 +00 35 44.96 20.16 i F51 – Pan-STARRS 1, Haleakala MPS 365269
2010 11 28.31175 03 42 13.96 +00 27 36.2 19.9 V 703 – Catalina Sky Survey MPS 362460
2010 11 28.31903 03 42 13.42 +00 27 37.6 19.5 V 703 – Catalina Sky Survey MPS 362460
2010 11 28.32595 03 42 13.06 +00 27 36.9 19.5 V 703 – Catalina Sky Survey MPS 362460
2010 11 28.33293 03 42 12.60 +00 27 36.2 19.8 V 703 – Catalina Sky Survey MPS 362460
2010 12 07.06818 03 34 39.40 +00 37 47.4 20.0 R H15 – ISON-NM Observatory, Mayhill MPS 362460
2010 12 07.08164 03 34 38.75 +00 37 49.0 19.9 R H15 – ISON-NM Observatory, Mayhill MPS 362460
2010 12 07.09506 03 34 38.11 +00 37 50.6 20.0 R H15 – ISON-NM Observatory, Mayhill MPS 362460
2010 12 07.10848 03 34 37.46 +00 37 52.3 20.0 R H15 – ISON-NM Observatory, Mayhill MPS 362460
2011 10 30.49310 10 38 45.06 +10 03 19.4 21.5 V G96 – Mt. Lemmon Survey MPS 399798
2011 10 30.50942 10 38 46.46 +10 03 14.6 21.5 V G96 – Mt. Lemmon Survey MPS 399798
2011 10 30.51767 10 38 47.14 +10 03 11.6 20.9 V G96 – Mt. Lemmon Survey MPS 399798
